Date String (YYYY-MM-DD hh:mm:ss) UTC,Instrument flags,Ambient pressure (hPa),Sample flow (lpm),Bypass flow (lpm),Sample temperature (°C),Ambient temperature (°C),ASC tube jacket temperature (°C),LED temperature (°C),Box temperature (°C),Sample RH (%),Span deviation,Mass concentration (μg/m³),Mass concentration (μg/m³),Mass concentration (μg/m³)
DateTimeUTC,F1_M11,P_M11,Q1_M11,Q2_M11,T1_M11,T2_M11,T3_M11,T4_M11,T5_M11,U1_M11,ZSPAN_M11,X0_M11,X2_M11,X1_M11
2022-04-15 19:00:00,,0819.2,4.99,0.00,25.3,24.4,00.0,34.2,27.2,13.6,0000.0,0008.30,0003.31,0001.95
2022-04-15 19:01:00,,0819.2,5.01,0.00,25.3,24.4,00.0,34.2,27.2,12.7,0000.0,0007.60,0003.32,0001.95
2022-04-15 19:02:00,,0819.1,4.99,0.00,25.3,24.4,00.0,34.2,27.2,12.6,0000.0,0007.43,0003.33,0001.97
2022-04-15 19:03:00,,0819.1,4.99,0.00,25.3,24.4,00.0,34.2,27.2,12.7,0000.0,0007.33,0003.31,0001.96
2022-04-15 19:04:00,,0819.1,5.00,0.00,25.4,24.5,00.0,34.2,27.2,12.0,0000.0,0007.24,0003.28,0001.96
2022-04-15 19:05:00,,0819.1,5.01,0.00,25.4,24.5,00.0,34.2,27.2,12.1,0000.0,0007.41,0003.30,0001.97
2022-04-15 19:06:00,,0819.0,5.00,0.00,25.4,24.5,00.0,34.3,27.2,11.7,0000.0,0007.58,0003.35,0001.98
2022-04-15 19:07:00,,0819.0,4.99,0.00,25.4,24.5,00.0,34.3,27.2,11.7,0000.0,0007.57,0003.37,0002.00
2022-04-15 19:08:00,,0819.1,5.00,0.00,25.4,24.5,00.0,34.3,27.2,11.7,0000.0,0008.10,0003.38,0002.01
2022-04-15 19:09:00,,0819.0,5.00,0.00,25.4,24.6,00.0,34.3,27.3,11.9,0000.0,0008.20,0003.39,0002.03
2022-04-15 19:10:00,,0819.0,5.02,0.00,25.4,24.6,00.0,34.3,27.3,12.3,0000.0,0008.74,0003.44,0002.05
2022-04-15 19:11:00,,0819.0,4.99,0.00,25.5,24.6,00.0,34.3,27.3,12.6,0000.0,0008.84,0003.43,0002.04
2022-04-15 19:12:00,,0819.0,5.00,0.00,25.5,24.6,00.0,34.3,27.3,11.9,0000.0,0009.43,0003.43,0002.04
2022-04-15 19:13:00,,0819.0,5.01,0.00,25.5,24.6,00.0,34.3,27.3,11.2,0000.0,0009.50,0003.45,0002.04
2022-04-15 19:14:00,,0819.0,5.00,0.00,25.5,24.7,00.0,34.3,27.4,10.8,0000.0,0009.69,0003.52,0002.05
2022-04-15 19:15:00,,0818.9,5.00,0.00,25.5,24.7,00.0,34.3,27.4,11.0,0000.0,0009.93,0003.53,0002.05
2022-04-15 19:16:00,,0818.9,5.00,0.00,25.5,24.7,00.0,34.4,27.4,11.0,0000.0,0010.07,0003.53,0002.06
2022-04-15 19:17:00,,0818.9,5.00,0.00,25.6,24.7,00.0,34.4,27.4,10.6,0000.0,0009.94,0003.50,0002.07
2022-04-15 19:18:00,,0818.9,4.98,0.00,25.6,24.7,00.0,34.4,27.4,10.7,0000.0,0009.92,0003.53,0002.08
2022-04-15 19:19:00,,0818.9,5.02,0.00,25.6,24.8,00.0,34.4,27.4,10.7,0000.0,0009.35,0003.56,0002.10
2022-04-15 19:20:00,,0818.8,5.00,0.00,25.6,24.8,00.0,34.4,27.4,10.5,0000.0,0009.22,0003.58,0002.11
2022-04-15 19:21:00,,0818.9,4.99,0.00,25.6,24.8,00.0,34.4,27.4,10.8,0000.0,0008.94,0003.60,0002.11
2022-04-15 19:22:00,,0818.8,4.98,0.00,25.6,24.8,00.0,34.4,27.5,10.5,0000.0,0009.11,0003.69,0002.14
2022-04-15 19:23:00,,0818.8,5.02,0.00,25.6,24.8,00.0,34.5,27.4,10.5,0000.0,0008.72,0003.73,0002.13
2022-04-15 19:24:00,,0818.7,4.98,0.00,25.6,24.8,00.0,34.5,27.5,10.5,0000.0,0008.83,0003.67,0002.11
2022-04-15 19:25:00,,0818.8,5.00,0.00,25.7,24.8,00.0,34.5,27.5,10.2,0000.0,0008.86,0003.66,0002.11
2022-04-15 19:26:00,,0818.8,5.00,0.00,25.7,24.8,00.0,34.5,27.5,10.2,0000.0,0009.01,0003.70,0002.14
2022-04-15 19:27:00,,0818.8,5.00,0.00,25.7,24.8,00.0,34.5,27.5,10.2,0000.0,0009.13,0003.69,0002.13
2022-04-15 19:28:00,,0818.7,4.99,0.00,25.7,24.8,00.0,34.5,27.5,10.6,0000.0,0009.30,0003.71,0002.13
2022-04-15 19:29:00,,0818.8,5.01,0.00,25.7,24.8,00.0,34.5,27.6,10.3,0000.0,0009.49,0003.75,0002.12
2022-04-15 19:30:00,,0818.8,5.00,0.00,25.7,24.9,00.0,34.5,27.5,10.2,0000.0,0009.44,0003.72,0002.09
2022-04-15 19:31:00,,0818.8,4.99,0.00,25.7,24.9,00.0,34.6,27.6,10.3,0000.0,0009.45,0003.72,0002.08
2022-04-15 19:32:00,,0818.8,5.01,0.00,25.7,24.9,00.0,34.6,27.6,10.1,0000.0,0009.34,0003.68,0002.06
2022-04-15 19:33:00,,0818.8,4.98,0.00,25.8,24.8,00.0,34.6,27.6,10.2,0000.0,0009.13,0003.62,0002.04
2022-04-15 19:34:00,,0818.8,5.02,0.00,25.8,24.8,00.0,34.6,27.6,10.1,0000.0,0008.90,0003.57,0002.04
2022-04-15 19:35:00,,0818.9,4.99,0.00,25.8,24.9,00.0,34.6,27.6,10.3,0000.0,0008.58,0003.56,0002.05
2022-04-15 19:36:00,,0818.9,5.01,0.00,25.8,24.9,00.0,34.6,27.6,10.5,0000.0,0008.55,0003.52,0002.04
2022-04-15 19:37:00,,0818.9,4.99,0.00,25.8,24.8,00.0,34.6,27.6,10.2,0000.0,0008.46,0003.45,0002.01
2022-04-15 19:38:00,,0818.9,4.99,0.00,25.8,24.8,00.0,34.6,27.6,10.2,0000.0,0008.56,0003.39,0002.00
2022-04-15 19:39:00,,0818.8,5.02,0.00,25.8,24.8,00.0,34.7,27.7,10.3,0000.0,0008.88,0003.39,0001.99
2022-04-15 19:40:00,,0818.9,5.00,0.00,25.8,24.8,00.0,34.7,27.7,10.3,0000.0,0009.01,0003.39,0001.99
2022-04-15 19:41:00,,0818.9,4.99,0.00,25.9,24.9,00.0,34.7,27.6,10.1,0000.0,0009.13,0003.43,0002.00
2022-04-15 19:42:00,,0818.9,5.02,0.00,25.9,24.9,00.0,34.7,27.7,09.9,0000.0,0009.15,0003.41,0001.99
2022-04-15 19:43:00,,0818.8,5.01,0.00,25.9,24.9,00.0,34.7,27.7,10.2,0000.0,0009.71,0003.43,0002.00
2022-04-15 19:44:00,,0818.8,4.98,0.00,25.9,25.0,00.0,34.7,27.7,10.3,0000.0,0009.91,0003.40,0001.99
2022-04-15 19:45:00,,0818.8,5.01,0.00,25.9,25.0,00.0,34.7,27.7,10.0,0000.0,0009.96,0003.41,0001.99
2022-04-15 19:46:00,,0818.8,5.01,0.00,25.9,25.0,00.0,34.7,27.7,09.9,0000.0,0010.45,0003.43,0002.00
2022-04-15 19:47:00,,0818.8,4.99,0.00,26.0,25.0,00.0,34.8,27.8,09.8,0000.0,0011.21,0003.43,0002.00
2022-04-15 19:48:00,,0818.7,4.99,0.00,26.0,25.1,00.0,34.8,27.8,09.8,0000.0,0011.18,0003.45,0002.00
2022-04-15 19:49:00,,0818.8,5.02,0.00,26.0,25.1,00.0,34.8,27.8,10.0,0000.0,0010.65,0003.48,0002.02
2022-04-15 19:50:00,,0818.8,4.99,0.00,26.0,25.1,00.0,34.8,27.8,09.7,0000.0,0010.24,0003.48,0002.02
2022-04-15 19:51:00,,0818.7,5.01,0.00,26.0,25.1,00.0,34.8,27.9,09.9,0000.0,0009.89,0003.43,0002.01
2022-04-15 19:52:00,,0818.7,5.00,0.00,26.0,25.1,00.0,34.8,27.9,09.8,0000.0,0009.84,0003.42,0002.02
2022-04-15 19:53:00,,0818.7,5.00,0.00,26.1,25.1,00.0,34.8,27.9,09.5,0000.0,0009.90,0003.44,0002.01
2022-04-15 19:54:00,,0818.7,5.02,0.00,26.1,25.1,00.0,34.9,27.9,09.6,0000.0,0009.27,0003.43,0002.01
2022-04-15 19:55:00,,0818.7,4.99,0.00,26.1,25.2,00.0,34.9,27.9,09.9,0000.0,0009.27,0003.46,0002.03
2022-04-15 19:56:00,,0818.7,5.01,0.00,26.1,25.2,00.0,34.9,27.9,10.0,0000.0,0009.32,0003.49,0002.04
2022-04-15 19:57:00,,0818.8,5.00,0.00,26.1,25.2,00.0,34.9,28.0,10.1,0000.0,0008.99,0003.53,0002.04
2022-04-15 19:58:00,,0818.7,4.98,0.00,26.1,25.3,00.0,34.9,28.0,10.0,0000.0,0008.33,0003.57,0002.05
2022-04-15 19:59:00,,0818.8,5.01,0.00,26.1,25.3,00.0,34.9,28.0,09.8,0000.0,0008.04,0003.59,0002.05
